SERT 2

operational
NORAD ID: 4327 Int'l Des: 1970-009 Owner: LERC Country: US
LEOCIRCULARRETROGRADESSO

About SERT 2

Description loading...

Live Position

Loading 3D Globe...

Upcoming Passes

Altitude History

Altitude vs Time

uPlot chart will show altitude changes over time

Two-Line Element Set

1 4327U 70009A 26061.10366903 -.00000001 00000-0 55301-4 0 9995
2 4327 99.2749 4.6127 0004754 174.2277 196.6825 13.58729075778868
Epoch: Mar 2, 2026 • Age: 26 hours

Current Status

Altitude 1051.5 km
Velocity 7.33 km/s
Sub-Earth Point 58.84°N, 163.52°E
Type other

Large Constellations

Loading constellations...